sat.trackr.live / text

‹ back to catalog

STARLINK-11469 [DTC]

NORAD 62227 · 2024-231K

PAYLOAD ACTIVE UNKNOWN

§ Identity

Operator
Country
US
Launch date
2024-12-05
Launch site
AFWTR
Launch vehicle
Mass (kg)
RCS (m²)

Purposes: comms

External: N2YO · Heavens-Above · Gunter

§ Orbital elements

Epoch: 2026-05-25T02:27:46.380096Z

Period
91.74 min
Inclination
53.1570°
Eccentricity
0.0001075
Mean motion
15.69720139 rev/d
Perigee alt
359.0 km
Apogee alt
360.4 km
Semi-major
6,737.8 km
B*
1.2767e-3
RAAN
84.5304°
Arg perigee
86.2224°
Mean anomaly
273.8917°
Rev number
8,541

§ Raw data

STARLINK-11469 [DTC]1 62227U 24231K   26145.10262014  .00157111  00000+0  12767-2 0  99952 62227  53.1570  84.5304 0001075  86.2224 273.8917 15.69720139 85411

JSON: /api/v1/satellites/62227 · /tle

For live sub-satellite position, see the globe view (requires WebGL).

§ Visibility from observer

Set your observer location to see the next 7 days of passes ≥ 10°. The values pass through the URL so the page stays shareable.

No JS? Fill the form by hand. The geolocation button needs JavaScript.